Terug naar catalogus

QIANFAN-163

ActiefCommunicatiePO
NORAD 69325·PAYLOAD·🇨🇳 China

Gelanceerd Jun 1, 2026 vanaf Jiuquan Satellite Launch Center

Loading…

Volgende Passages (komende 24 uur)

TLE

VersSource: Space-Track

Epoch: Sep 14, 2026, 13:14 UTC

1 69325U 26121A   26257.55149614  .00000004  00000-0 -11925-4 0  9991
2 69325  89.0108 291.6203 0002260 122.8699 237.2670 13.51022130 14238

Volg QIANFAN-163 in realtime met AllMySat

Download on the App Store